map of SUAA home
SUAA - Airport
Location
City:  Montevideo, Montevideo, Uruguay
Name:Ángel S. Adami Airport
ICAO:SUAA

Details
Type:Airport (Aerodrome, Airfield)
Use:Public/Civil
Latitude:34°47'21"S (-34.789207)
Longitude:56°15'53"W (-56.264702)
Datum:WGS 1984
Elevation:174 ft (53 m)
Variation:10.83°W (WMM2015v2 magnetic declination)
-0.15° annual change
Runways:1
Longest:4101 × 75 ft (1250 × 23 m), paved

Time
Time Zone:UTC-3
Local Time:

Weather
METAR:SUAA 041400Z 22005KT 9999 FEW026 23/13 Q1024
TAF:SUAA 041145Z 0412/0512 15010KT 9999 FEW026 TX24/0418Z TN14/0509Z
BECMG 0502/0504 08005KT

Related Locations
Nearby:
Farthest:MPK: 12294 mi / 19785 km
Mokpo, KR

Find:

   beyond  
but within

Other Information
Maps:
NOTAMs:
Links:
Sources:

  
  • flag of Uruguay
  

Sectional Chart

Flight Planning
at skyvector.com

Satellite Image

Google Maps Satellite view

 

Copyright © 2004-2019 Karl L. Swartz. All rights reserved.
The Great Circle Mapper name and logo are trademarks of the Great Circle Mapper.
All other trademarks mentioned herein belong to their respective owners.
Please see credits for attibutions and further copyright information.

  Follow gcmap on Facebook Follow gcmap on Twitter GCmap on LinkedIn

hCard Microformat

Geo Microformat